Hourly Data Report for October 05, 2019

All times are specified in Local Standard Time (LST). Add 1 hour to adjust for Daylight Saving Time where and when it is observed.

EUREKA CLIMATE
NUNAVUT
Current Station Operator: ECCC - MSC

79°59'21.000" N
85°56'02.000" W
10.00 m
2401199
71613
NEK

Download Data

Hourly Data (October 2019)
Hourly Data Report for October 5, 2019
TIME Temp Definition
°C
Dew Point Definition
°C
Rel Hum Definition
%
Wind Dir Definition
10's deg

Wind Spd Definition
km/h
Visibility Definition
km
Stn Press Definition
kPa
Hmdx Definition


Wind Chill Definition


Weather Definition


00:00 -6.1 -6.5 97 2 13   99.74   -11 LegendNANA
01:00 -5.2 -5.7 96 2 9   99.75   -9 LegendNANA
02:00 -4.4 -5.2 94 36 10   99.76   -9 LegendNANA
03:00 -4.5 -5.3 94 2 11   99.78   -9 LegendNANA
04:00 -4.9 -5.5 95 1 10   99.78   -9 LegendNANA
05:00 -4.8 -5.4 96 2 7   99.77   -8 LegendNANA
06:00 -5.0 -5.5 97 1 10   99.73   -9 LegendNANA
07:00 -5.1 -5.5 97 2 8   99.72   -9 LegendNANA
08:00 -5.0 -5.3 98 1 9   99.66   -9 LegendNANA
09:00 -5.1 -5.2 100 1 11   99.62   -10 LegendNANA
10:00 -4.9 -4.9 100 3 7   99.59   -8 LegendNANA
11:00 -5.3 -5.5 99 3 4   99.56   -7 LegendNANA
12:00 -5.4 -5.7 98 32 3   99.46   -7 LegendNANA
13:00 -4.4 -4.5 99 31 6   99.37   -7 LegendNANA
14:00 -4.6 -5.3 95 34 6   99.34   -7 LegendNANA
15:00 -4.0 -5.2 91 33 13   99.29   -9 LegendNANA
16:00 -4.1 -5.3 91 32 7   99.22   -7 LegendNANA
17:00 -3.6 -4.4 94 35 17   99.12   -9 LegendNANA
18:00 -3.5 -4.5 93 31 5   99.03   -6 LegendNANA
19:00 -3.9 -4.8 94 1 22   98.96   -10 LegendNANA
20:00 -4.3 -5.4 92 36 25   98.87   -11 LegendNANA
21:00 -4.2 -5.5 91 36 24   98.76   -11 LegendNANA
22:00 -4.2 -5.8 89 35 20   98.71   -11 LegendNANA
23:00 -3.8 -5.6 87 2 11   98.64   -8 LegendNANA

Notes on Data Quality.

Legend

  • E = Estimated
  • M = Missing
  • NA = Not Available
Date modified: